Chariton
Tuesday 11:55 PM
Temperature57° (73°/50°)
Dew Point55°
Relative Humidity94
%
Visibility10
mi
Pressure1019.6
mb
Wind DirectionS
170°
Wind Speed5
mph
Precipitation Today0.00"

Last 30 Observations

Time PresWx Temp DP Feels RH% Vsby Pressure Ceiling Direction Speed 1h Precip
11:35 PM 57° 57° 100
%
10
mi
1020.0
mb
0.00"
11:15 PM 59° 57° 94
%
10
mi
1020.0
mb
SSW
200°
3
mph
0.00"
10:55 PM 59° 59° 100
%
10
mi
1020.0
mb
Calm 0.00"
10:35 PM 61° 10
mi
1020.0
mb
S
190°
3
mph
0.00"
10:15 PM 61° 59° 94
%
10
mi
1019.7
mb
Calm 0.00"
9:55 PM 61° 61° 100
%
10
mi
1019.7
mb
Calm 0.00"
9:35 PM 61° 59° 94
%
10
mi
1019.3
mb
Calm 0.00"
9:15 PM 63° 59° 88
%
10
mi
1019.3
mb
Calm 0.00"
8:55 PM 64° 57° 77
%
10
mi
1019.0
mb
S
170°
5
mph
0.00"
8:35 PM 66° 57° 73
%
10
mi
1019.3
mb
S
180°
3
mph
0.00"
8:15 PM 66° 57° 73
%
10
mi
1019.0
mb
S
170°
3
mph
0.00"
7:55 PM 66° 55° 68
%
10
mi
1019.0
mb
SE
140°
3
mph
0.00"
7:35 PM 70° 55° 60
%
10
mi
1019.0
mb
SE
130°
3
mph
0.00"
7:15 PM 70° 55° 60
%
10
mi
1019.3
mb
Calm 0.00"
6:55 PM 72° 54° 71°53
%
10
mi
1019.3
mb
Calm 0.00"
6:35 PM 68° 55° 64
%
10
mi
1019.7
mb
Calm 0.00"
6:15 PM 70° 57° 64
%
10
mi
1019.7
mb
6,000
ft
Calm 0.00"
5:55 PM 72° 50° 71°46
%
10
mi
1019.7
mb
6,000
ft
Calm 0.00"
5:35 PM 70° 50° 49
%
10
mi
1020.0
mb
6,000
ft
Calm 0.00"
5:15 PM 72° 52° 71°50
%
10
mi
1019.7
mb
Calm 0.00"
4:55 PM 70° 54° 56
%
10
mi
1020.0
mb
5,500
ft
E
90°
3
mph
0.00"
4:35 PM 72° 54° 71°53
%
10
mi
1020.0
mb
5,500
ft
ENE
60°
6
mph
0.00"
4:15 PM 73° 52° 73°47
%
10
mi
1020.3
mb
Variable 6
mph
0.00"
3:55 PM 72° 54° 71°53
%
10
mi
1020.7
mb
Calm 0.00"
3:35 PM 70° 52° 53
%
10
mi
1020.7
mb
6,000
ft
Calm 0.00"
3:15 PM 70° 54° 56
%
10
mi
1020.7
mb
5,500
ft
Calm 0.00"
2:55 PM 70° 54° 56
%
10
mi
1020.7
mb
6,000
ft
ESE
110°
6
mph
0.00"
2:35 PM 72° 54° 71°53
%
10
mi
1021.0
mb
6,000
ft
Calm 0.00"
2:15 PM 70° 54° 56
%
10
mi
1021.0
mb
Calm 0.00"
1:55 PM 70° 55° 60
%
10
mi
1021.0
mb
5,500
ft
NE
40°
8
mph
0.00"